Wind_Speed
34 39 48 45 36 24 28 34 31 40 30 30 31 22 19 20 26 26 21 20 25 22 28 30 27 21 17 14 18 21 18 11 9 25 19 30 28 24 24 22 25 27 27 26
29 38 37 36 35 29 25 23 29 30 22 26 24 21 18 21 25 31 26 23 22 19 20 29 32 28 15 11 13 13 13 12 13 19 21 22 22 25 27 29 30 32 30 29
27 28 31 35 37 35 32 24 22 18 22 20 17 23 25 22 25 21 27 31 27 25 23 22 24 22 17 16 14 13 13 12 14 16 21 22 25 29 29 35 35 37 37 36
15 17 32 35 37 35 32 26 17 16 12 17 23 13 24 23 23 29 24 25 28 25 22 22 23 18 18 18 18 15 14 17 19 21 23 26 30 36 39 38 38 39 40 37
19 30 24 35 36 35 29 25 19 12 13 15 10 10 23 24 26 28 32 30 23 19 21 25 22 18 18 17 18 19 21 15 19 21 24 27 30 30 34 35 35 36 37 37
14 12 19 29 28 31 29 21 20 17 17 9 23 19 16 24 24 21 23 22 22 21 22 24 19 23 22 17 14 16 21 21 20 23 28 31 29 27 28 32 34 35 35 35
20 17 21 19 21 26 21 23 5 5 3 7 18 14 18 17 18 22 22 17 14 25 24 30 26 19 21 21 18 19 18 17 19 20 22 23 26 27 30 32 33 34 35 38
18 11 24 21 24 19 22 24 7 4 4 2 11 9 22 27 34 29 24 23 26 26 29 34 21 23 23 19 19 18 19 23 22 19 20 22 25 27 27 27 29 32 33 34
16 7 20 21 20 21 18 25 22 8 14 2 7 21 21 23 25 24 24 25 22 27 31 34 26 25 24 24 22 19 23 20 20 22 21 18 18 21 23 23 24 25 26 28
7 7 15 18 19 21 23 21 16 11 6 3 4 7 11 14 17 20 22 23 24 28 33 33 29 27 26 23 23 23 23 22 16 14 12 18 22 24 26 28 30 32 34 35
13 1 7 9 19 26 30 27 9 19 14 6 2 6 4 6 15 21 22 20 22 32 32 30 30 30 27 26 28 28 25 23 20 18 21 24 22 21 22 25 29 31 33 35
26 4 6 5 10 6 26 31 31 15 8 7 6 8 7 7 11 15 21 19 28 29 27 28 26 22 24 26 27 26 27 29 27 28 30 27 22 25 29 31 30 33 35 37
21 11 10 4 7 9 8 24 24 18 14 14 7 6 11 9 17 14 16 28 27 25 24 19 20 20 22 23 25 28 28 31 31 35 36 36 36 39 41 41 42 45 48 46
25 16 12 9 4 8 6 13 18 15 13 11 17 14 11 8 9 18 29 29 25 20 15 13 16 17 18 21 25 28 31 33 34 36 37 40 43 45 47 47 50 53 57 50
29 18 20 16 11 11 9 9 10 16 14 18 13 11 11 6 10 26 30 29 27 24 18 14 12 13 15 19 25 30 33 33 35 37 41 45 48 49 49 51 55 60 51 45
29 19 19 19 15 10 10 3 3 6 13 7 8 12 14 16 22 26 33 30 30 23 13 16 16 15 20 28 29 29 31 33 38 44 47 47 48 49 55 60 58 45 43 44
28 28 25 13 15 11 5 8 9 7 9 5 12 10 14 16 24 32 40 33 28 20 25 18 18 23 26 28 32 33 35 39 43 44 45 48 52 57 55 45 46 47 47 47
28 28 22 11 13 1 6 8 10 5 12 16 12 12 15 17 21 19 26 32 24 23 27 26 26 29 32 33 34 36 40 42 44 48 52 56 57 48 50 50 49 48 47 46
23 27 13 11 7 7 11 15 16 20 10 13 18 24 24 28 29 26 25 24 24 26 27 29 32 31 32 33 35 38 42 46 51 54 53 50 52 51 50 48 46 45 45 44
24 19 19 21 7 5 14 20 15 18 13 16 22 28 26 25 26 23 22 21 24 25 24 27 28 30 32 37 41 46 50 49 47 48 46 46 48 49 48 47 45 42 42 39
27 21 19 23 6 4 14 19 22 18 16 21 22 25 24 26 21 23 25 22 22 23 25 27 32 37 42 45 45 43 44 42 39 41 44 47 47 47 46 43 41 39 37 35
20 19 16 17 7 4 21 29 26 21 24 25 23 20 19 18 17 15 17 19 22 27 31 34 37 38 39 40 39 36 36 38 40 42 46 46 44 45 42 38 35 31 29 28
17 17 19 13 10 8 19 29 22 11 18 24 19 17 15 13 13 17 20 23 26 28 30 32 35 36 34 33 34 35 37 40 42 46 46 41 39 35 32 29 25 26 29 30
20 16 18 19 15 10 16 18 17 14 11 13 13 12 13 15 17 19 21 22 24 27 29 30 29 30 32 34 35 37 40 44 47 42 36 33 27 26 21 24 27 29 25 28
27 22 26 24 24 20 19 15 11 10 7 4 4 8 11 12 13 16 19 21 23 25 25 26 27 29 31 33 36 40 45 45 36 32 26 22 21 17 21 27 25 25 26 29
23 23 23 25 22 15 20 15 11 7 6 4 7 9 9 11 14 16 17 18 19 20 22 23 25 27 32 35 39 42 39 31 24 20 17 16 18 21 22 18 22 26 23 26
Wind_Direction
183 185 196 196 195 200 199 207 209 216 208 215 228 237 236 237 243 248 251 251 245 261 260 259 268 267 274 255 250 258 264 247 211 224 221 234 254 253 262 270 270 270 270 273
184 199 197 196 199 199 196 200 216 220 216 227 228 228 236 244 253 249 246 257 259 257 256 259 264 273 266 238 231 218 248 239 216 207 221 238 245 253 262 269 270 271 276 280
201 202 194 197 201 206 207 206 203 213 223 232 234 242 242 248 250 239 245 252 259 265 273 261 255 257 239 238 233 216 219 238 241 238 236 246 255 260 268 271 273 273 275 280
221 202 203 200 207 207 212 213 204 211 230 236 231 253 252 256 253 242 234 247 244 245 257 251 241 239 240 235 231 224 221 228 238 244 251 255 265 266 271 272 272 273 277 281
199 197 194 206 206 206 215 211 209 219 247 254 221 231 254 256 255 242 242 236 242 257 254 249 234 237 229 223 230 242 249 261 247 250 253 261 263 260 261 264 267 270 272 273
201 201 202 203 208 210 212 216 217 235 253 237 244 234 239 243 248 254 232 227 243 252 245 236 228 220 230 230 233 241 250 262 257 251 255 263 262 267 267 265 265 268 271 272
201 185 200 200 189 196 207 215 204 216 188 226 233 260 250 249 255 257 239 247 248 246 239 224 234 227 227 225 238 260 276 277 268 264 260 259 263 266 266 268 270 270 269 268
199 195 195 201 206 193 217 212 181 174 186 304 261 231 255 256 259 258 252 244 250 240 239 223 229 224 226 227 249 264 279 286 281 280 283 280 276 272 271 269 270 272 274 273
194 210 201 200 192 212 199 207 219 219 251 256 244 240 240 244 248 262 258 253 250 225 224 218 223 225 233 245 256 267 278 283 285 291 291 289 285 282 280 280 280 278 278 278
161 201 189 205 216 222 221 208 197 210 158 181 250 260 227 227 245 264 265 254 238 220 214 218 225 228 236 245 253 265 287 299 304 315 290 295 294 288 282 282 281 279 279 279
180 126 148 206 226 219 215 210 183 196 197 165 171 256 223 275 271 269 273 241 223 214 208 218 222 227 238 249 258 279 298 304 310 309 314 319 311 297 287 281 281 284 286 283
215 244 258 231 201 193 225 215 219 208 175 185 205 230 219 261 276 284 265 207 205 211 205 205 215 228 244 262 280 288 292 306 316 315 315 322 318 311 307 305 309 310 304 298
206 233 253 184 206 219 199 209 197 193 197 188 171 233 203 292 304 267 189 173 169 184 199 211 228 250 266 274 282 286 297 305 311 313 317 321 322 320 317 318 318 317 316 309
212 220 225 226 240 173 151 188 200 211 211 229 241 243 264 236 249 173 174 175 180 176 190 222 241 251 260 273 280 289 298 306 303 306 309 313 314 316 317 315 313 312 310 306
209 216 231 250 217 186 150 147 167 198 216 231 232 233 201 163 167 152 161 176 184 181 185 214 233 247 263 276 285 292 297 295 296 300 303 308 310 308 306 307 306 306 305 302
216 201 205 182 189 198 187 143 171 171 170 198 218 202 193 195 183 197 171 190 207 185 198 250 237 248 270 275 277 281 283 286 292 299 299 298 299 300 302 302 302 301 299 299
199 195 193 169 197 204 163 162 138 159 161 207 187 192 183 189 202 199 196 207 213 201 216 244 246 257 264 274 280 281 284 288 288 288 290 293 296 298 299 299 298 298 299 299
190 191 179 148 164 133 185 195 188 225 175 184 195 195 178 179 178 193 208 228 238 213 217 237 251 259 267 272 278 282 282 282 286 288 290 293 296 296 295 296 297 298 299 299
189 194 156 154 130 136 166 211 219 218 185 186 190 175 175 180 191 193 208 213 202 201 216 243 253 259 264 267 272 277 281 284 288 292 294 295 296 297 297 299 299 299 298 300
178 198 189 151 122 179 187 191 211 204 167 178 185 183 184 188 187 193 197 201 211 223 235 246 253 262 270 275 279 281 285 288 290 293 298 301 303 303 303 302 301 301 301 302
185 193 191 164 122 151 177 181 177 191 185 165 178 180 182 185 195 192 193 208 224 239 253 264 271 275 279 282 284 287 291 295 299 300 303 303 303 303 303 303 304 305 304 304
171 165 159 169 149 155 187 175 189 207 187 172 171 184 188 199 219 230 240 248 258 267 273 279 283 286 289 292 294 295 297 299 300 301 304 301 299 301 302 302 305 307 312 312
172 182 168 179 181 195 210 200 202 214 192 179 193 199 214 231 248 260 269 276 281 286 288 290 293 294 295 295 297 299 300 301 303 304 302 300 301 300 301 304 309 310 306 307
170 185 180 156 141 176 187 184 195 164 179 188 203 227 248 261 270 277 279 281 286 289 292 294 295 296 297 298 299 300 302 304 306 303 300 301 300 302 312 310 306 310 312 313
156 161 166 156 144 148 141 149 146 155 174 197 242 267 270 273 275 280 286 290 292 294 296 297 298 299 299 300 303 303 304 305 303 303 304 304 311 317 309 304 313 310 312 315
152 168 168 165 156 167 157 153 150 164 172 206 293 276 264 275 282 288 290 292 293 295 299 302 305 306 307 308 305 303 304 303 304 305 308 312 308 306 307 310 323 325 317 313
Height
3047 3050 3048 3058 3068 3076 3080 3086 3090 3095 3102 3107 3109 3112 3117 3121 3124 3126 3129 3132 3136 3136 3136 3140 3143 3144 3147 3150 3152 3155 3155 3155 3156 3158 3158 3162 3162 3161 3163 3162 3163 3164 3164 3163
3046 3045 3054 3063 3070 3076 3080 3085 3089 3095 3101 3104 3106 3109 3113 3116 3118 3121 3126 3127 3129 3129 3132 3135 3137 3140 3143 3146 3148 3149 3151 3152 3153 3155 3157 3158 3157 3158 3158 3158 3157 3158 3157 3157
3042 3049 3056 3060 3066 3071 3077 3081 3088 3093 3100 3101 3103 3105 3108 3111 3115 3116 3118 3121 3124 3125 3125 3128 3131 3134 3138 3142 3146 3147 3148 3149 3151 3152 3153 3153 3153 3153 3153 3153 3153 3153 3152 3152
3045 3050 3052 3058 3064 3070 3075 3081 3088 3093 3095 3096 3101 3100 3102 3106 3108 3111 3115 3118 3121 3124 3123 3123 3126 3130 3134 3137 3141 3144 3146 3147 3148 3147 3147 3147 3148 3147 3147 3146 3146 3148 3145 3144
3041 3046 3050 3056 3062 3069 3075 3082 3088 3091 3092 3095 3096 3099 3095 3101 3101 3103 3109 3114 3117 3119 3119 3118 3122 3126 3131 3134 3138 3139 3140 3142 3144 3144 3143 3142 3141 3140 3140 3141 3140 3139 3138 3135
3043 3045 3050 3054 3062 3068 3075 3081 3085 3088 3091 3092 3093 3096 3094 3095 3097 3101 3105 3109 3113 3113 3113 3115 3118 3123 3127 3131 3132 3135 3136 3137 3138 3139 3140 3139 3136 3135 3134 3133 3132 3131 3130 3129
3041 3044 3050 3055 3060 3066 3072 3079 3083 3088 3088 3086 3089 3092 3090 3092 3095 3097 3100 3105 3108 3109 3110 3112 3115 3120 3125 3127 3129 3130 3132 3133 3133 3132 3132 3131 3131 3130 3129 3126 3124 3123 3122 3121
3038 3044 3046 3051 3057 3064 3069 3075 3076 3082 3086 3084 3085 3085 3084 3088 3089 3091 3093 3096 3100 3102 3105 3109 3114 3119 3122 3124 3125 3126 3128 3128 3126 3126 3126 3126 3125 3125 3124 3122 3120 3117 3116 3114
3038 3042 3047 3051 3056 3062 3066 3069 3077 3077 3079 3084 3083 3081 3083 3083 3084 3085 3087 3090 3093 3097 3100 3105 3111 3116 3119 3121 3122 3124 3126 3125 3124 3123 3122 3121 3120 3118 3116 3114 3112 3110 3108 3106
3038 3044 3046 3051 3057 3060 3063 3067 3071 3074 3080 3082 3080 3078 3079 3079 3080 3081 3082 3085 3089 3092 3097 3102 3107 3112 3115 3117 3120 3121 3121 3120 3119 3119 3119 3118 3116 3113 3111 3108 3106 3103 3101 3099
3037 3042 3046 3048 3051 3053 3058 3061 3064 3068 3069 3076 3081 3076 3076 3074 3076 3078 3078 3081 3085 3089 3094 3100 3104 3108 3111 3114 3115 3115 3115 3115 3115 3114 3114 3112 3109 3107 3105 3102 3099 3096 3095 3092
3036 3041 3042 3046 3048 3049 3053 3055 3060 3061 3068 3070 3071 3074 3074 3073 3073 3074 3075 3078 3084 3090 3094 3098 3102 3105 3108 3109 3110 3110 3110 3109 3108 3107 3107 3105 3103 3101 3099 3095 3093 3090 3085 3081
3036 3039 3042 3043 3048 3047 3048 3052 3055 3057 3061 3064 3069 3071 3071 3071 3070 3072 3073 3078 3085 3090 3094 3098 3100 3103 3104 3104 3104 3105 3104 3104 3102 3101 3098 3096 3095 3093 3090 3086 3083 3078 3074 3069
3037 3038 3040 3042 3044 3046 3047 3048 3052 3054 3057 3063 3064 3066 3066 3067 3067 3072 3075 3077 3083 3088 3093 3097 3099 3099 3099 3099 3099 3099 3099 3098 3096 3094 3093 3091 3089 3085 3082 3077 3073 3068 3063 3058
3033 3036 3038 3040 3041 3043 3046 3047 3049 3050 3055 3060 3061 3064 3066 3067 3065 3073 3075 3077 3081 3085 3089 3094 3096 3097 3097 3096 3096 3097 3094 3092 3091 3089 3087 3084 3080 3076 3072 3067 3063 3057 3052 3046
3027 3033 3035 3038 3041 3043 3043 3046 3048 3050 3051 3054 3057 3061 3063 3067 3069 3073 3076 3078 3080 3083 3087 3092 3093 3094 3094 3094 3094 3091 3089 3088 3086 3084 3081 3076 3071 3068 3063 3057 3052 3046 3042 3037
3023 3028 3033 3037 3040 3042 3045 3047 3049 3050 3052 3054 3057 3059 3060 3064 3067 3070 3072 3076 3078 3077 3086 3090 3090 3090 3089 3089 3088 3086 3084 3082 3079 3076 3072 3068 3064 3059 3052 3046 3041 3035 3030 3026
3020 3024 3029 3034 3039 3044 3043 3044 3046 3052 3053 3053 3055 3056 3058 3062 3064 3067 3071 3074 3075 3080 3082 3086 3087 3087 3087 3086 3083 3080 3078 3075 3071 3067 3063 3058 3052 3046 3040 3035 3030 3024 3019 3014
3018 3022 3026 3031 3037 3042 3041 3041 3043 3049 3052 3052 3053 3055 3057 3060 3062 3067 3070 3072 3076 3079 3082 3084 3084 3083 3082 3079 3077 3074 3070 3066 3061 3056 3050 3044 3039 3034 3029 3024 3018 3014 3008 3004
3018 3022 3025 3030 3034 3039 3039 3041 3044 3048 3050 3052 3055 3055 3058 3060 3064 3067 3069 3072 3075 3077 3078 3078 3078 3076 3074 3072 3068 3064 3059 3054 3050 3045 3039 3034 3028 3022 3017 3011 3007 3003 2997 2992
3015 3019 3022 3026 3032 3036 3038 3040 3043 3048 3051 3050 3054 3057 3060 3062 3067 3067 3068 3070 3072 3073 3073 3072 3071 3069 3065 3061 3057 3052 3048 3044 3039 3035 3029 3024 3018 3011 3006 3001 2996 2992 2987 2984
3012 3016 3022 3027 3031 3035 3037 3040 3044 3046 3045 3049 3055 3060 3062 3065 3067 3069 3070 3070 3071 3070 3068 3065 3061 3058 3054 3050 3046 3042 3038 3034 3030 3025 3019 3013 3008 3003 2997 2992 2988 2984 2980 2977
3013 3015 3018 3025 3028 3030 3033 3037 3041 3046 3048 3052 3057 3060 3062 3064 3065 3065 3065 3064 3062 3060 3057 3055 3052 3048 3044 3040 3036 3033 3029 3025 3021 3015 3009 3004 2999 2994 2989 2986 2983 2979 2975 2971
3009 3012 3018 3024 3028 3029 3033 3038 3042 3047 3051 3054 3057 3059 3060 3060 3060 3059 3059 3057 3056 3054 3051 3048 3044 3040 3036 3032 3028 3024 3020 3015 3010 3004 3000 2996 2991 2988 2984 2981 2977 2973 2969 2966
3008 3014 3017 3022 3027 3031 3036 3040 3044 3047 3051 3053 3054 3055 3055 3055 3055 3055 3054 3052 3050 3047 3045 3041 3038 3034 3030 3026 3021 3015 3010 3006 3001 2996 2992 2989 2985 2983 2981 2977 2973 2969 2964 2959
3011 3014 3018 3021 3027 3031 3036 3041 3044 3047 3050 3051 3052 3052 3052 3053 3053 3052 3050 3048 3046 3044 3040 3037 3033 3029 3024 3019 3014 3007 3001 2997 2994 2991 2987 2985 2983 2980 2977 2974 2970 2963 2959 2955